DW1256 Weather Reports


Display with metric or nautical units.
time (UTC)temp
F
wind
direction
speed
MPH
gust
MPH
rain 1hr
in
rain 24hr
in
rain mn
in
humidity
%
barometer
mb
20260509153939 66 0 3.0 12.0 0.00 0.15 0.00 61 1004.8
20260509153433 65 0 4.0 12.0 0.00 0.15 0.00 60 1004.8
20260509152927 65 0 4.0 14.0 0.00 0.15 0.00 61 1004.9
20260509152421 64 0 5.0 14.0 0.00 0.15 0.00 61 1005.0
20260509151409 63 0 5.0 12.0 0.00 0.15 0.00 60 1005.3
20260509150903 63 0 6.0 15.0 0.00 0.15 0.00 60 1005.3
20260509145858 64 0 5.0 15.0 0.00 0.15 0.00 60 1005.1
20260509145357 64 0 4.0 12.0 0.00 0.15 0.00 61 1005.0
20260509144857 64 0 4.0 12.0 0.00 0.15 0.00 61 1004.8
20260509144357 64 0 3.0 9.0 0.00 0.15 0.00 61 1004.8
20260509143856 63 0 4.0 11.0 0.00 0.15 0.00 63 1004.8
20260509143400 63 0 5.0 12.0 0.00 0.15 0.00 61 1004.8
20260509142356 62 0 5.0 12.0 0.00 0.15 0.00 64 1004.7
20260509141854 62 0 4.0 10.0 0.00 0.15 0.00 64 1004.8
20260509141354 62 0 3.0 11.0 0.00 0.15 0.00 66 1004.7
20260509140855 61 0 3.0 11.0 0.00 0.15 0.00 66 1004.8
20260509140355 61 0 2.0 8.0 0.00 0.15 0.00 68 1004.7
20260509135853 60 0 3.0 9.0 0.00 0.15 0.00 68 1004.6
20260509135353 60 0 3.0 9.0 0.00 0.15 0.00 69 1004.6
20260509134853 59 0 2.0 9.0 0.00 0.15 0.00 70 1004.6
20260509134352 59 0 2.0 9.0 0.00 0.15 0.00 71 1004.6
20260509133847 58 0 2.0 8.0 0.00 0.15 0.00 74 1004.6
20260509133340 57 0 2.0 8.0 0.00 0.15 0.00 75 1004.6
20260509132835 57 0 2.0 6.0 0.00 0.15 0.00 79 1004.6
20260509132329 56 0 3.0 9.0 0.00 0.15 0.00 81 1004.7
20260509131823 56 0 3.0 6.0 0.00 0.15 0.00 81 1004.7
20260509131316 55 0 3.0 8.0 0.00 0.15 0.00 81 1004.7
20260509130810 55 0 3.0 9.0 0.00 0.15 0.00 81 1004.8
20260509130304 54 0 2.0 9.0 0.00 0.15 0.00 81 1004.7
20260509125759 54 0 2.0 6.0 0.00 0.15 0.00 81 1004.7
20260509125253 54 0 3.0 9.0 0.00 0.15 0.00 81 1004.8
20260509124240 54 0 2.0 6.0 0.00 0.15 0.00 81 1004.7
20260509123735 54 0 2.0 9.0 0.00 0.15 0.00 81 1004.7
20260509123229 54 0 2.0 9.0 0.00 0.15 0.00 81 1004.8
20260509122722 54 0 2.0 9.0 0.00 0.15 0.00 81 1004.8
20260509121711 54 0 2.0 8.0 0.00 0.15 0.00 81 1004.9
20260509121205 54 0 3.0 8.0 0.00 0.15 0.00 81 1004.9
20260509120658 54 0 3.0 8.0 0.00 0.16 0.00 81 1005.0
20260509120152 54 0 2.0 6.0 0.00 0.16 0.00 81 1005.0
20260509115648 54 0 1.0 5.0 0.00 0.16 0.00 81 1004.8
20260509115141 54 0 1.0 5.0 0.00 0.16 0.00 81 1004.8
20260509114635 53 0 1.0 5.0 0.00 0.16 0.00 81 1004.8
20260509114129 53 0 2.0 6.0 0.00 0.16 0.00 81 1004.9
20260509113623 53 0 2.0 6.0 0.00 0.16 0.00 81 1004.9
20260509113116 53 0 2.0 5.0 0.00 0.16 0.00 81 1004.9
20260509112611 53 0 2.0 5.0 0.00 0.16 0.00 81 1004.9
20260509112104 53 0 2.0 6.0 0.00 0.16 0.00 81 1004.8
20260509111558 53 0 2.0 6.0 0.00 0.16 0.00 80 1004.8
20260509111053 53 0 2.0 5.0 0.00 0.16 0.00 80 1004.8
20260509110547 53 0 2.0 8.0 0.00 0.16 0.00 80 1004.7
20260509110041 53 0 3.0 8.0 0.00 0.16 0.00 80 1004.7
20260509105535 53 0 3.0 6.0 0.00 0.16 0.00 80 1004.7
20260509105029 53 0 3.0 8.0 0.00 0.16 0.00 80 1004.6
20260509104523 53 0 3.0 8.0 0.00 0.16 0.00 80 1004.6
20260509104017 53 0 4.0 12.0 0.00 0.16 0.00 81 1004.6
20260509103511 53 0 3.0 12.0 0.00 0.16 0.00 80 1004.6
20260509103005 53 0 3.0 11.0 0.00 0.16 0.00 80 1004.7
20260509102459 53 0 3.0 11.0 0.00 0.16 0.00 80 1004.7
20260509101953 53 0 3.0 8.0 0.00 0.16 0.00 80 1004.7
20260509101447 53 0 2.0 8.0 0.00 0.16 0.00 80 1004.6
20260509100940 53 0 2.0 8.0 0.00 0.16 0.00 80 1004.5
20260509100435 52 0 2.0 4.0 0.00 0.16 0.00 80 1004.3
20260509095929 52 0 2.0 5.0 0.00 0.16 0.00 79 1004.4
20260509095423 52 0 1.0 5.0 0.00 0.16 0.00 79 1004.3
20260509094917 52 0 1.0 3.0 0.00 0.16 0.00 79 1004.2
20260509093904 51 0 1.0 3.0 0.00 0.16 0.00 78 1004.3
20260509093359 51 0 1.0 4.0 0.00 0.16 0.00 78 1004.4
20260509092853 51 0 1.0 4.0 0.00 0.16 0.00 77 1004.5
20260509092347 51 0 1.0 3.0 0.00 0.16 0.00 77 1004.7
20260509091841 51 0 1.0 3.0 0.00 0.16 0.00 77 1004.7
20260509091334 51 0 1.0 3.0 0.00 0.16 0.00 77 1004.6
20260509090323 51 0 1.0 3.0 0.00 0.16 0.00 76 1004.8
20260509085817 51 0 1.0 4.0 0.00 0.16 0.00 76 1004.7
20260509085311 51 0 0.0 4.0 0.00 0.16 0.00 76 1004.8
20260509084805 51 0 1.0 5.0 0.00 0.16 0.00 76 1004.7
20260509084258 51 0 1.0 5.0 0.00 0.16 0.00 76 1004.8
20260509083247 51 0 1.0 4.0 0.00 0.16 0.00 75 1004.7
20260509082235 50 0 1.0 3.0 0.00 0.20 0.00 75 1004.6
20260509081223 50 0 0.0 3.0 0.00 0.20 0.00 74 1004.5
20260509080723 50 0 0.0 3.0 0.00 0.20 0.00 74 1004.5
20260509080223 50 0 0.0 2.0 0.00 0.20 0.00 74 1004.5
20260509075725 50 0 0.0 0.0 0.00 0.20 0.00 74 1004.4
20260509074722 51 0 0.0 3.0 0.00 0.20 0.00 74 1004.6
20260509074220 51 0 0.0 3.0 0.00 0.20 0.00 74 1004.6
20260509073721 51 0 0.0 1.0 0.00 0.20 0.00 74 1004.8
20260509073221 51 0 0.0 1.0 0.00 0.21 0.00 74 1004.8
20260509072217 51 0 1.0 3.0 0.00 0.22 0.00 74 1005.0
20260509071717 51 0 1.0 3.0 0.00 0.22 0.00 74 1005.0
20260509071216 51 0 0.0 2.0 0.00 0.22 0.00 74 1005.0
20260509070715 51 0 0.0 4.0 0.00 0.22 0.00 74 1005.1
20260509070212 51 0 2.0 6.0 0.00 0.22 0.00 73 1005.1
20260509065712 51 0 3.0 9.0 0.00 0.22 0.00 73 1005.3
20260509065213 51 0 3.0 9.0 0.00 0.22 0.00 73 1005.3
20260509064714 51 0 2.0 8.0 0.00 0.22 0.00 73 1005.4
20260509064215 51 0 2.0 5.0 0.00 0.22 0.00 73 1005.4
20260509063710 51 0 3.0 8.0 0.00 0.22 0.00 73 1005.5
20260509063204 51 0 2.0 8.0 0.00 0.22 0.00 73 1005.5
20260509062658 51 0 2.0 6.0 0.00 0.22 0.00 73 1005.5
20260509062151 51 0 3.0 6.0 0.00 0.22 0.00 73 1005.4
20260509061139 51 0 3.0 9.0 0.00 0.22 0.00 72 1005.4
20260509060633 51 0 2.0 6.0 0.00 0.22 0.00 72 1005.4
20260509060127 51 0 1.0 5.0 0.00 0.22 0.00 72 1005.4
20260509055622 51 0 0.0 4.0 0.00 0.22 0.00 71 1005.5
20260509055115 51 0 0.0 0.0 0.00 0.22 0.00 71 1005.5
20260509054609 51 0 0.0 0.0 0.00 0.22 0.00 71 1005.6
20260509054103 52 0 0.0 0.0 0.00 0.22 0.00 71 1005.7
20260509053557 52 0 0.0 0.0 0.00 0.22 0.00 71 1005.8
20260509052545 52 0 0.0 0.0 0.00 0.22 0.00 71 1005.8
20260509052040 52 0 0.0 0.0 0.00 0.22 0.00 71 1005.7
20260509051030 52 0 0.0 0.0 0.00 0.22 0.00 70 1005.7
20260509050521 52 0 0.0 0.0 0.00 0.22 0.00 70 1005.7
20260509045003 52 0 0.0 0.0 0.00 0.22 0.22 70 1005.9
20260509044456 52 0 0.0 0.0 0.00 0.22 0.22 70 1005.9
20260509043950 52 0 0.0 0.0 0.00 0.22 0.22 70 1005.9
20260509043444 52 0 0.0 0.0 0.00 0.22 0.22 70 1005.9
20260509042939 53 0 0.0 0.0 0.00 0.22 0.22 70 1005.9
20260509042433 53 0 0.0 0.0 0.00 0.22 0.22 70 1006.0
20260509041927 53 0 0.0 0.0 0.00 0.22 0.22 70 1006.1
20260509041420 53 0 0.0 0.0 0.00 0.22 0.22 70 1006.1
20260509040914 53 0 0.0 0.0 0.00 0.22 0.22 69 1006.2
20260509035903 53 0 0.0 0.0 0.00 0.22 0.22 69 1006.2
20260509035357 53 0 0.0 2.0 0.00 0.22 0.22 69 1006.3
20260509034854 53 0 0.0 2.0 0.00 0.22 0.22 69 1006.3
20260509034354 53 0 0.0 1.0 0.00 0.22 0.22 69 1006.4
20260509033853 53 0 0.0 1.0 0.00 0.22 0.22 69 1006.5
20260509033352 54 0 0.0 3.0 0.00 0.22 0.22 69 1006.3
20260509032851 54 0 1.0 3.0 0.00 0.22 0.22 69 1006.3
20260509032352 54 0 1.0 3.0 0.00 0.22 0.22 69 1006.2
20260509031851 54 0 0.0 2.0 0.00 0.22 0.22 68 1006.2
20260509031346 54 0 0.0 2.0 0.00 0.22 0.22 68 1006.2
20260509030847 54 0 0.0 2.0 0.00 0.22 0.22 68 1006.3
20260509030343 54 0 0.0 3.0 0.00 0.22 0.22 68 1006.3
20260509025843 55 0 1.0 3.0 0.00 0.22 0.22 68 1006.3
20260509025345 55 0 0.0 2.0 0.00 0.22 0.22 68 1006.4
20260509024842 55 0 0.0 1.0 0.00 0.22 0.22 68 1006.5
20260509024340 55 0 0.0 2.0 0.00 0.22 0.22 67 1006.5
20260509023836 55 0 0.0 2.0 0.00 0.22 0.22 67 1006.5
20260509023337 55 0 0.0 1.0 0.00 0.22 0.22 67 1006.5
20260509022838 55 0 0.0 1.0 0.00 0.22 0.22 67 1006.5
20260509022335 55 0 0.0 2.0 0.00 0.22 0.22 67 1006.4
20260509021833 55 0 0.0 2.0 0.00 0.22 0.22 67 1006.4
20260509020826 56 0 0.0 2.0 0.00 0.22 0.22 66 1006.3
20260509020320 56 0 0.0 2.0 0.00 0.22 0.22 66 1006.2
20260509015814 56 0 0.0 2.0 0.00 0.22 0.22 66 1006.1
20260509015308 56 0 0.0 3.0 0.00 0.22 0.22 66 1006.1
20260509014802 56 0 1.0 4.0 0.00 0.22 0.22 66 1006.1
20260509014256 56 0 1.0 4.0 0.00 0.22 0.22 65 1006.1
20260509013750 56 0 1.0 4.0 0.00 0.22 0.22 65 1006.1
20260509013243 57 0 0.0 4.0 0.00 0.22 0.22 65 1006.1
20260509012738 57 0 0.0 2.0 0.00 0.22 0.22 65 1006.0
20260509012232 57 0 1.0 3.0 0.00 0.22 0.22 64 1006.1
20260509011726 57 0 1.0 4.0 0.00 0.22 0.22 64 1006.1
20260509011220 57 0 2.0 6.0 0.00 0.22 0.22 64 1006.1
20260509010713 57 0 1.0 6.0 0.00 0.22 0.22 63 1006.0
20260509010208 57 0 1.0 5.0 0.00 0.22 0.22 63 1006.0
20260509005702 58 0 2.0 5.0 0.00 0.22 0.22 63 1006.0
20260509005156 58 0 2.0 5.0 0.00 0.22 0.22 63 1006.0
20260509004150 58 0 2.0 6.0 0.00 0.22 0.22 62 1006.0
20260509003650 58 0 1.0 6.0 0.00 0.22 0.22 62 1006.1
20260509003152 59 0 1.0 3.0 0.00 0.22 0.22 62 1006.1
20260509002650 59 0 2.0 6.0 0.00 0.22 0.22 61 1006.1
20260509002150 59 0 1.0 6.0 0.00 0.22 0.22 61 1006.1
20260509001650 60 0 0.0 3.0 0.00 0.22 0.22 61 1006.1
20260509001150 60 0 1.0 5.0 0.00 0.22 0.22 60 1006.1
20260509000650 60 0 2.0 10.0 0.00 0.22 0.22 60 1006.1
20260509000149 60 0 3.0 10.0 0.00 0.22 0.22 59 1006.2
20260508235649 60 0 2.0 6.0 0.00 0.22 0.22 58 1006.1
20260508235150 61 0 1.0 4.0 0.00 0.22 0.22 58 1006.2
20260508234150 61 0 1.0 4.0 0.00 0.22 0.22 57 1006.2
20260508233649 61 0 1.0 3.0 0.00 0.22 0.22 57 1006.2
20260508233149 60 0 1.0 5.0 0.00 0.22 0.22 56 1006.3
20260508232650 61 0 1.0 5.0 0.00 0.22 0.22 56 1006.3
20260508231132 60 0 3.0 9.0 0.00 0.22 0.22 54 1006.4
20260508230626 60 0 2.0 8.0 0.00 0.22 0.22 54 1006.4
20260508230120 60 0 2.0 8.0 0.00 0.22 0.22 54 1006.5
20260508225611 60 0 2.0 6.0 0.00 0.22 0.22 53 1006.5
20260508225105 60 0 2.0 9.0 0.00 0.22 0.22 53 1006.6
20260508224100 60 0 3.0 8.0 0.00 0.22 0.22 54 1006.5
20260508222559 61 0 2.0 5.0 0.00 0.22 0.22 55 1006.6
20260508222057 61 0 2.0 5.0 0.00 0.22 0.22 54 1006.6
20260508221055 60 0 2.0 6.0 0.00 0.22 0.22 54 1006.5
20260508220553 60 0 3.0 8.0 0.00 0.22 0.22 53 1006.4
20260508220053 60 0 2.0 8.0 0.00 0.22 0.22 54 1006.4
20260508215052 60 0 2.0 9.0 0.00 0.22 0.22 54 1006.4
20260508214552 60 0 1.0 5.0 0.00 0.22 0.22 55 1006.5
20260508214053 60 0 2.0 4.0 0.00 0.22 0.22 55 1006.5
20260508213553 61 0 2.0 4.0 0.00 0.22 0.22 57 1006.5
20260508212549 61 0 2.0 5.0 0.00 0.22 0.22 55 1006.5
20260508212050 61 0 2.0 5.0 0.00 0.22 0.22 54 1006.5
20260508211548 61 0 2.0 5.0 0.00 0.22 0.22 54 1006.4
20260508211042 61 0 3.0 6.0 0.00 0.22 0.22 54 1006.5
20260508210543 61 0 3.0 6.0 0.00 0.22 0.22 54 1006.5
20260508205542 62 0 2.0 9.0 0.00 0.22 0.22 54 1006.5
20260508205041 62 0 3.0 9.0 0.00 0.22 0.22 53 1006.5
20260508204541 62 0 4.0 10.0 0.00 0.22 0.22 54 1006.6
20260508204038 62 0 3.0 10.0 0.00 0.22 0.22 55 1006.6
20260508203539 62 0 4.0 9.0 0.00 0.22 0.22 56 1006.6
20260508203037 61 0 4.0 11.0 0.00 0.22 0.22 55 1006.8
20260508202537 62 0 4.0 11.0 0.00 0.22 0.22 57 1006.8
20260508202037 62 0 3.0 8.0 0.00 0.22 0.22 58 1006.8
20260508201034 62 0 3.0 10.0 0.00 0.22 0.22 59 1007.0
20260508200532 62 0 3.0 10.0 0.00 0.22 0.22 57 1007.1
20260508200034 62 0 3.0 8.0 0.00 0.23 0.22 58 1007.2
20260508195533 62 0 2.0 8.0 0.00 0.23 0.22 59 1007.3
20260508194532 62 0 2.0 6.0 0.00 0.23 0.22 59 1007.2
20260508194033 62 0 2.0 8.0 0.00 0.23 0.22 62 1007.3
20260508193534 61 0 2.0 8.0 0.01 0.23 0.22 64 1007.4
20260508193029 60 0 2.0 6.0 0.01 0.23 0.22 67 1007.5
20260508192029 60 0 2.0 5.0 0.04 0.23 0.22 67 1007.6
20260508191529 60 0 1.0 4.0 0.05 0.23 0.22 68 1007.6
20260508191028 60 0 1.0 6.0 0.05 0.23 0.22 69 1007.7
20260508190530 59 0 2.0 6.0 0.06 0.23 0.22 69 1007.8
20260508190028 59 0 1.0 5.0 0.06 0.23 0.22 68 1007.8
20260508185530 59 0 1.0 4.0 0.06 0.23 0.22 69 1007.7
20260508184525 58 0 0.0 4.0 0.07 0.23 0.22 69 1007.7
20260508184026 57 0 0.0 3.0 0.08 0.23 0.22 69 1007.7
20260508183525 57 0 0.0 3.0 0.07 0.22 0.21 67 1007.7
20260508182024 57 0 1.0 5.0 0.07 0.19 0.19 66 1008.0
20260508181526 57 0 1.0 5.0 0.07 0.18 0.18 65 1008.1
20260508181025 58 0 2.0 5.0 0.08 0.18 0.17 66 1008.2
20260508180525 58 0 1.0 5.0 0.08 0.17 0.17 65 1008.3
20260508180021 58 0 1.0 3.0 0.08 0.17 0.16 65 1008.4
20260508175521 58 0 0.0 3.0 0.09 0.17 0.16 64 1008.3
20260508175021 58 0 0.0 2.0 0.08 0.16 0.15 64 1008.3
20260508174520 58 0 1.0 2.0 0.08 0.16 0.15 64 1008.3
20260508174021 58 0 1.0 4.0 0.07 0.15 0.14 63 1008.4
20260508173521 58 0 1.0 4.0 0.07 0.15 0.14 63 1008.4
20260508173022 59 0 1.0 3.0 0.06 0.14 0.13 63 1008.3
20260508172521 59 0 0.0 3.0 0.05 0.13 0.12 62 1008.4
20260508172022 60 0 0.0 3.0 0.04 0.12 0.11 61 1008.4
20260508171517 60 0 1.0 3.0 0.03 0.11 0.10 60 1008.5
20260508171017 60 0 2.0 6.0 0.02 0.10 0.09 58 1008.5
20260508170516 61 0 2.0 6.0 0.01 0.09 0.08 57 1009.0
20260508170016 61 0 2.0 5.0 0.01 0.09 0.08 55 1009.0
20260508165516 61 0 3.0 6.0 0.00 0.08 0.07 54 1009.0
20260508165017 62 0 3.0 8.0 0.00 0.08 0.07 53 1009.1
20260508164517 62 0 4.0 10.0 0.00 0.08 0.07 51 1009.1
20260508164016 62 0 4.0 13.0 0.00 0.08 0.07 50 1009.1
20260508163518 62 0 4.0 13.0 0.00 0.08 0.07 49 1009.2
20260508162513 62 0 5.0 13.0 0.00 0.08 0.07 49 1009.0
20260508161514 63 0 4.0 11.0 0.00 0.08 0.07 48 1009.0
20260508161012 63 0 4.0 9.0 0.00 0.08 0.07 49 1009.1
20260508160013 63 0 5.0 13.0 0.00 0.08 0.07 47 1009.1
20260508155014 63 0 4.0 12.0 0.00 0.08 0.07 49 1009.1
20260508154509 63 0 5.0 12.0 0.00 0.08 0.07 50 1009.2